AO-07 1 07530U 74089B 23117.52481084 -.00000019 00000-0 17280-3 0 9991 2 07530 101.9455 103.8645 0012320 158.8867 312.2453 12.53663651216827 UO-11 1 14781U 84021B 23117.58291781 .00001761 00000-0 21380-3 0 9993 2 14781 97.6543 96.4908 0008641 20.1016 340.0537 14.84729495107634 AO-16 1 20439U 90005D 23117.49376476 .00000297 00000-0 12545-3 0 9990 2 20439 98.8819 106.4308 0010694 358.4509 117.7179 14.33082261737649 LO-19 1 20442U 90005G 23117.90692255 .00000285 00000-0 12057-3 0 9991 2 20442 98.8405 93.3592 0011175 331.4521 28.6049 14.33237011738207 HUBBLE 1 20580U 90037B 23117.75158163 .00005041 00000-0 26879-3 0 9999 2 20580 28.4689 243.4993 0002458 181.6480 323.9042 15.12877972614086 MET-2/21 1 22782U 93055A 23117.51715331 .00000066 00000-0 46195-4 0 9994 2 22782 82.5455 124.9879 0022177 182.6480 288.5424 13.83883627497440 AO-27 1 22825U 93061C 23117.56055519 .00000176 00000-0 85476-4 0 9996 2 22825 98.8465 159.6221 0007889 209.0838 150.9906 14.30289148543056 IO-26 1 22826U 93061D 23117.57671739 .00000201 00000-0 94472-4 0 9991 2 22826 98.8411 159.5030 0008677 194.7426 165.3504 14.30647862543329 FO-29 1 24278U 96046B 23117.76194235 .00000026 00000-0 62147-4 0 9991 2 24278 98.5260 103.1986 0350104 187.5416 172.0376 13.53142547318360 NOAA-15 1 25338U 98030A 23117.78885105 .00000310 00000-0 14725-3 0 9993 2 25338 98.6107 147.6971 0011598 100.7021 259.5465 14.26301153298072 GO-32 1 25397U 98043D 23117.48499851 .00000160 00000-0 89515-4 0 9991 2 25397 98.8643 74.5169 0000338 334.6451 25.4710 14.23862323288111 ISS 1 25544U 98067A 23118.17288796 .00022917 00000-0 40266-3 0 9995 2 25544 51.6395 216.3921 0005491 254.1975 181.7638 15.50388315394039 NO-44 1 26931U 01043C 23117.87534865 .00000263 00000-0 13164-3 0 9998 2 26931 67.0514 326.7330 0007432 279.7446 80.2816 14.30896407126540 SO-50 1 27607U 02058C 23117.32453393 .00001541 00000-0 22787-3 0 9993 2 27607 64.5562 60.8454 0073316 234.8845 124.5372 14.77159852 94717 CO-55 1 27844U 03031E 23117.26373227 .00000485 00000-0 23587-3 0 9993 2 27844 98.6795 125.2647 0008546 273.9906 86.0295 14.22740781 28496 CO-57 1 27848U 03031J 23117.82018888 .00000434 00000-0 21516-3 0 9992 2 27848 98.6834 126.2477 0008501 288.9898 71.0359 14.22257295 28390 RS-22 1 27939U 03042A 23117.68750633 .00002023 00000-0 35943-3 0 9995 2 27939 98.2355 264.2949 0011374 297.8429 62.1617 14.68247972 47135 NOAA-18 1 28654U 05018A 23118.07166971 .00000301 00000-0 18544-3 0 9990 2 28654 98.9109 192.7022 0014854 158.2109 201.9698 14.12922549924496 CO-58 1 28895U 05043F 23117.34446508 .00002096 00000-0 39546-3 0 9999 2 28895 98.1451 249.8224 0015464 229.1366 130.8498 14.65474005933365 CO-65 1 32785U 08021C 23117.49899480 .00004004 00000-0 40106-3 0 9993 2 32785 97.7020 84.5674 0010477 272.7256 87.2764 14.91902273813336 AAUSAT2 1 32788U 08021F 23117.43358396 .00011007 00000-0 82441-3 0 9995 2 32788 97.5566 98.0304 0008507 157.3003 202.8600 15.02846786815482 DO-64 1 32789U 08021G 23116.63359451 .00041284 00000-0 13628-2 0 9990 2 32789 97.3089 138.6632 0003712 310.2126 49.8791 15.31282650819485 CO-66 1 32791U 08021J 23117.45287113 .00006039 00000-0 54128-3 0 9999 2 32791 97.6516 89.7898 0011017 214.7300 145.3203 14.96103129814157 RS-30 1 32953U 08025A 23117.66190421 .00000024 00000-0 10000-3 0 9990 2 32953 82.5065 348.5324 0018899 296.8263 63.0891 12.43122445677375 PRISM 1 33493U 09002B 23117.49130105 .00010212 00000-0 71423-3 0 9996 2 33493 98.2496 128.4958 0015579 209.0823 150.9535 15.05409528776119 NOAA-19 1 33591U 09005A 23117.82657377 .00000279 00000-0 17531-3 0 9992 2 33591 99.1049 162.9373 0014217 28.9563 331.2394 14.12741507732834 SRMSAT 1 37841U 11058D 23117.52778566 .00000508 00000-0 13352-3 0 9998 2 37841 19.9704 156.3090 0011750 194.1802 315.4180 14.10880048595643 HRBE 1 37855U 11061F 23117.75437363 .00021723 00000-0 72473-3 0 9990 2 37855 101.7037 51.2912 0124774 193.8471 165.9318 15.23903473629341 RS-40 1 38735U 12041C 23117.50927544 .00000011 00000-0 90228-5 0 9992 2 38735 82.4755 69.6876 0018576 48.5292 311.7381 12.42592733487526 ZACUBE-1 1 39417U 13066B 23117.68915066 .00004081 00000-0 47576-3 0 9990 2 39417 97.6815 81.1536 0057122 93.4219 267.3532 14.84571658509709 Delfi-N3xt 1 39428U 13066N 23117.75126912 .00006966 00000-0 10098-2 0 9996 2 39428 97.8318 44.3937 0111540 352.4138 7.5378 14.72150597504899 GOMX-1 1 39430U 13066Q 23117.80573818 .00003013 00000-0 52808-3 0 9992 2 39430 97.7855 11.8786 0147114 132.3281 229.0499 14.61582564502184 LO-74 1 39440U 13066AA 23117.43664492 .00002584 00000-0 33973-3 0 9995 2 39440 97.7686 67.8729 0075375 191.0332 168.9231 14.79088137506650 AO-73 1 39444U 13066AE 23117.70837012 .00005826 00000-0 65133-3 0 9994 2 39444 97.6679 83.6770 0055501 79.6949 281.0518 14.86175327508733 SPROUT 1 39770U 14029E 23117.77268858 .00030352 00000-0 24182-2 0 9999 2 39770 97.9693 243.6330 0008823 119.4415 240.7651 15.00260962484594 DTUSAT-2 1 40030U 14033W 23117.34132937 .00004069 00000-0 40040-3 0 9994 2 40030 97.9643 57.2572 0012658 97.9109 262.3547 14.92612321480419 EO-80 1 40032U 14033Y 23117.31722663 .00005383 00000-0 52769-3 0 9995 2 40032 97.9644 57.2502 0012890 99.1710 261.0967 14.92615254480909 HODOYOSHI-1 1 40299U 14070B 23117.93858888 .00016036 00000-0 51008-3 0 9990 2 40299 97.1970 181.9361 0012477 97.3298 21.3853 15.32601403471118 FIREBIRD FU3 1 40377U 15003B 23117.36148744 .00131190 00000-0 15219-2 0 9996 2 40377 99.0759 61.7193 0054014 32.4436 328.0116 15.59536005456684 FIREBIRD FU4 1 40378U 15003C 23117.36549128 .00127571 00000-0 14782-2 0 9990 2 40378 99.0769 62.0381 0054180 31.6343 328.8145 15.59565670456692 GRIFEX 1 40379U 15003D 23117.59273802 .00038149 00000-0 91624-3 0 9992 2 40379 99.0781 42.3227 0089998 85.6319 275.5197 15.37063184455608 XW-2C 1 40906U 15049H 23117.68081806 .00017653 00000-0 70288-3 0 9999 2 40906 97.4967 124.6913 0011436 351.4444 119.9383 15.25246786420690 XW-2D 1 40907U 15049J 23117.94783044 .00020748 00000-0 78448-3 0 9997 2 40907 97.4947 125.3641 0009916 344.4429 79.5444 15.26950458420812 LILACSAT-2 1 40908U 15049K 23117.92198730 .00008925 00000-0 42689-3 0 9999 2 40908 97.5262 121.1424 0014456 13.1123 53.3648 15.19131529420169 XW-2E 1 40909U 15049L 23117.88319509 .00037930 00000-0 10944-2 0 9990 2 40909 97.4584 131.0802 0006925 314.7770 164.6304 15.35574036421412 XW-2F 1 40910U 15049M 23117.86045318 .00037492 00000-0 11031-2 0 9995 2 40910 97.4659 130.2809 0006915 308.7599 172.5743 15.34960409421165 XW-2B 1 40911U 15049N 23117.93705971 .00020437 00000-0 77755-3 0 9999 2 40911 97.4920 125.8215 0010147 346.5462 79.0025 15.26745025420696 DCBB 1 40912U 15049P 23117.67393153 .00048371 00000-0 11975-2 0 9994 2 40912 97.4221 134.5887 0006894 270.9965 183.0344 15.40254765421823 IO-86 1 40931U 15052B 23117.45451167 .00001471 00000-0 11397-3 0 9994 2 40931 5.9981 88.7325 0013505 298.9455 60.7904 14.77179142409844 ATHENOXAT-1 1 41168U 15077C 23117.58071432 .00139102 00000-0 25601-2 0 9996 2 41168 14.9822 255.4089 0005105 45.7707 38.6883 15.47247355408441 ChubuSat-2 1 41338U 16012B 23117.56372901 .00003898 00000-0 27167-3 0 9990 2 41338 31.0015 181.3664 0012140 33.8348 326.3061 15.03619070394758 ChubuSat-3 1 41339U 16012C 23117.64576425 .00005157 00000-0 36251-3 0 9991 2 41339 31.0112 177.8765 0012047 41.3407 95.5862 15.03516104394764 Horyu-4 1 41340U 16012D 23117.40740996 .00006775 00000-0 43273-3 0 9992 2 41340 31.0026 149.7721 0011490 95.5988 264.5960 15.07200858395056 e-st@r-II 1 41459U 16025D 23117.81001107 .00033932 00000-0 10569-2 0 9992 2 41459 98.1897 314.1148 0112901 273.4903 85.3339 15.27098232385209 AAUSAT4 1 41460U 16025E 23117.20029368 .00074038 00000-0 13253-2 0 9991 2 41460 98.1694 324.3419 0073519 234.4882 193.5551 15.46700606385860 LO-87 1 41557U 16033B 23117.31459190 .00050812 00000-0 79561-3 0 9998 2 41557 97.3851 223.4266 0006085 311.0382 133.8290 15.53564681385713 NuSat2 1 41558U 16033C 23117.33975125 .00059361 00000-0 83939-3 0 9994 2 41558 97.4124 231.1078 0006196 295.3868 149.6574 15.56322993386049 Lapan A3 1 41603U 16040E 23117.86316399 .00003946 00000-0 17438-3 0 9992 2 41603 97.1701 145.7486 0014081 129.3303 356.1675 15.22179626379835 Pratham 1 41783U 16059A 23117.30634591 .00000947 00000-0 18874-3 0 9990 2 41783 97.8739 150.6752 0031619 261.1200 98.6423 14.63869100351533 TY-1 1 41844U 16066D 23118.07960833 .00052778 00000-0 99085-3 0 9994 2 41844 97.3726 136.1739 0007704 219.1191 226.7330 15.48417986359912 CAS-2T 1 41847U 16066G 23117.36365729 .00001423 00000-0 22103-3 0 9999 2 41847 98.5070 186.1505 0360003 350.1165 9.3068 14.39573079339496 EO-88 1 42017U 17008BX 23117.77914293 .00133383 00000-0 14019-2 0 9994 2 42017 97.2152 187.4568 0004845 194.0557 166.0569 15.63881876345551 CAS-4B 1 42759U 17034B 23117.77146435 .00013429 00000-0 68591-3 0 9994 2 42759 43.0181 35.7639 0009252 140.7489 317.4503 15.16545495323983 CAS-4A 1 42761U 17034D 23117.91808150 .00011880 00000-0 60711-3 0 9997 2 42761 43.0173 33.4884 0009775 140.2388 307.2428 15.16609583324014 NIUSat 1 42766U 17036B 23116.66904246 .00019939 00000-0 55600-3 0 9992 2 42766 97.1630 149.2238 0008326 287.9294 72.1043 15.36759453324691 Aalto 1 1 42775U 17036L 23118.05890293 .00019954 00000-0 61216-3 0 9990 2 42775 97.1578 149.6022 0008126 286.1799 73.8550 15.33753873324830 URSA MAIOR 1 42776U 17036M 23117.52763710 .00020077 00000-0 58618-3 0 9995 2 42776 97.1594 150.2855 0007720 282.4505 77.5875 15.35321868324810 Max Valier Sat 1 42778U 17036P 23118.05988973 .00024954 00000-0 69919-3 0 9990 2 42778 97.1625 154.1517 0006152 279.0136 81.0412 15.36580543325024 Pegasus 1 42784U 17036V 23118.09452410 .00039975 00000-0 89342-3 0 9994 2 42784 97.1538 156.2495 0005315 265.3738 94.6904 15.43388850325243 NUDATSat 1 42787U 17036Y 23117.91614970 .00257713 00000-0 16677-2 0 9990 2 42787 97.1448 165.1582 0005504 223.1016 136.9837 15.75308740325636 SUCHAI 1 1 42788U 17036Z 23117.68245168 .00058731 00000-0 10235-2 0 9997 2 42788 97.1517 158.9845 0004730 246.9263 113.1490 15.50537451325451 SKCUBE 1 42789U 17036AA 23117.34879785 .00048103 00000-0 95781-3 0 9991 2 42789 97.1524 157.4050 0004686 255.1714 104.9017 15.46755513325241 VZLUSAT 1 1 42790U 17036AB 23117.57832952 .00229040 00000-0 16575-2 0 9997 2 42790 97.1440 164.5457 0006044 214.7182 145.3688 15.72767887325711 VENTA 1 1 42791U 17036AC 23117.53711908 .00037157 00000-0 82675-3 0 9992 2 42791 97.1547 156.8607 0004732 261.7768 98.2944 15.43540235325215 Robusta 1B 1 42792U 17036AD 23117.53837355 .00054406 00000-0 98957-3 0 9994 2 42792 97.1504 158.6340 0004360 246.7268 113.3525 15.49340351325350 D-SAT 1 42794U 17036AF 23117.55210838 .00004508 00000-0 36058-3 0 9991 2 42794 97.4656 111.9904 0119454 111.7085 249.6904 14.95167258318360 TechnoSat 1 42829U 17042E 23118.07460721 .00002632 00000-0 25541-3 0 9994 2 42829 97.3935 318.5136 0014348 38.8770 321.3480 14.93369191315010 AO-91 1 43017U 17073E 23117.47286042 .00005244 00000-0 37456-3 0 9993 2 43017 97.6364 3.8234 0234164 236.4470 121.4189 14.85437143293659 PICSAT 1 43132U 18004X 23117.45624130 .00067230 00000-0 11361-2 0 9997 2 43132 97.3318 199.4592 0004207 290.3811 69.6989 15.51374134294660 AO-92 1 43137U 18004AC 23117.46529702 .00032700 00000-0 75058-3 0 9990 2 43137 97.3304 196.2339 0004617 324.6239 35.4701 15.42638569294482 TianYi 2 1 43155U 18008A 23117.93738747 .00026239 00000-0 10870-2 0 9997 2 43155 97.3032 171.7135 0015492 124.6445 2.0236 15.23776719290996 Zhou Enlai 1 43156U 18008B 23117.89323921 .00029116 00000-0 11930-2 0 9992 2 43156 97.3088 171.7189 0012892 126.3146 337.1170 15.24160867290918 TianYi 6 1 43158U 18008D 23116.94796416 .00013465 00000-0 60087-3 0 9990 2 43158 97.3036 167.9594 0012503 133.4447 349.8165 15.21428870290622 S-Net D 1 43186U 18014G 23117.49517794 .00004217 00000-0 34209-3 0 9991 2 43186 97.6442 22.2191 0011677 339.2886 20.7863 15.00143558285951 S-Net B 1 43187U 18014H 23117.49595328 .00004077 00000-0 33098-3 0 9990 2 43187 97.6437 22.1552 0011734 337.8893 22.1823 15.00136830285959 S-Net A 1 43188U 18014J 23117.49616347 .00004086 00000-0 33163-3 0 9999 2 43188 97.6442 22.2393 0011748 338.0470 22.0249 15.00139096285957 S-Net C 1 43189U 18014K 23117.36444506 .00003741 00000-0 30415-3 0 9996 2 43189 97.6432 22.0113 0011844 335.7672 24.2993 15.00126638284485 Shaonian Xing 1 43199U 18015H 23117.40298149 .00101520 00000-0 11027-2 0 9994 2 43199 97.5426 273.2172 0006250 324.6313 87.2884 15.63134223291852 CubeBel-1 1 43666U 18083E 23117.88152929 .00040187 00000-0 11763-2 0 9993 2 43666 97.3869 149.2899 0007884 305.9771 156.8921 15.35100916249479 Changshagaoxin 1 43669U 18083H 23117.87678546 .00032857 00000-0 10578-2 0 9991 2 43669 97.3852 144.1673 0004857 307.0716 155.1356 15.32135574249230 Ten-Koh 1 43677U 18084G 23117.34342122 .00003026 00000-0 29817-3 0 9994 2 43677 98.0053 256.3334 0014108 320.3951 39.6236 14.92754821244470 PO-101 1 43678U 18084H 23117.93503058 .00002155 00000-0 21159-3 0 9990 2 43678 98.0138 260.9199 0008947 334.8741 25.2041 14.93250674244761 QO-100 1 43700U 18090A 23117.81097446 .00000143 00000-0 00000+0 0 9992 2 43700 0.0090 210.4327 0001145 202.8031 120.0296 1.00272987 16420 Reaktor Hello World 1 43743U 18096AA 23117.17611353 .00050963 00000-0 82843-3 0 9997 2 43743 97.3178 202.9888 0008953 10.4080 349.7356 15.52497493246247 MinXSS-2 1 43758U 18099A 23117.40216091 .00007035 00000-0 55596-3 0 9999 2 43758 97.5907 182.6007 0015431 298.1358 61.8307 15.00875585240128 AO-95 1 43770U 18099N 23117.17972874 .00005342 00000-0 44148-3 0 9995 2 43770 97.5746 180.0949 0010784 301.7535 58.2637 14.99308122239965 RANGE-B 1 43772U 18099Q 23117.17378525 .00006719 00000-0 53225-3 0 9995 2 43772 97.5841 182.6900 0007114 278.4208 81.6209 15.00872317240016 RANGE-A 1 43773U 18099R 23117.58005292 .00004345 00000-0 37133-3 0 9992 2 43773 97.5674 178.7231 0010597 289.1835 70.8240 14.98114723239983 MOVE-II 1 43780U 18099Y 23117.18269953 .00009733 00000-0 73129-3 0 9993 2 43780 97.5762 182.3158 0007718 331.3631 28.7170 15.02767600240073 SNUSat 2 1 43782U 18099AA 23117.40853278 .00004157 00000-0 34509-3 0 9993 2 43782 97.5791 180.8411 0009935 292.5417 67.4755 14.99266142240029 SnugLite 1 43784U 18099AC 23117.64540927 .00005706 00000-0 46556-3 0 9991 2 43784 97.5707 180.7041 0010618 289.0417 70.9656 14.99780559240096 ITASat 1 1 43786U 18099AE 23117.17192652 .00004124 00000-0 34402-3 0 9999 2 43786 97.5775 181.1247 0012981 292.3935 67.5912 14.99055870240002 EAGLET 1 1 43790U 18099AJ 23117.60122620 .00004130 00000-0 34746-3 0 9998 2 43790 97.5805 182.0442 0010449 301.7077 58.3127 14.98752161239805 ESEO 1 43792U 18099AL 23117.24517805 .00002465 00000-0 21655-3 0 9997 2 43792 97.5725 180.3150 0011208 298.3989 61.6103 14.97418816239763 CSIM 1 43793U 18099AM 23117.49283784 .00008874 00000-0 65836-3 0 9990 2 43793 97.5796 183.8755 0014239 300.8269 59.1554 15.03219808239960 Astrocast 0.1 1 43798U 18099AS 23117.18370886 .00005563 00000-0 43034-3 0 9999 2 43798 97.5915 182.9705 0012295 272.2364 87.7453 15.01817444240113 JO-97 1 43803U 18099AX 23117.16864270 .00005437 00000-0 43851-3 0 9996 2 43803 97.5713 181.0707 0011944 279.1601 80.8272 15.00234537240048 Suomi 100 1 43804U 18099AY 23117.15417631 .00004458 00000-0 36288-3 0 9999 2 43804 97.5735 180.8930 0014633 291.3237 68.6425 14.99951198240047 Al Farabi 2 1 43805U 18099AZ 23117.15147369 .00009831 00000-0 76419-3 0 9998 2 43805 97.5714 181.8639 0009144 271.4554 88.5624 15.01463469240094 CHOMPTT 1 43855U 18104G 23117.52920401 .00024955 00000-0 66151-3 0 9993 2 43855 85.0341 200.5470 0014617 146.8867 213.3302 15.38088325242785 ISAT 1 43879U 18111D 23117.53437345 .00007207 00000-0 55682-3 0 9996 2 43879 97.6510 22.7072 0013418 336.7284 23.3332 15.01758240236731 UWE-4 1 43880U 18111E 23117.25659101 .00006141 00000-0 47677-3 0 9994 2 43880 97.6411 23.2471 0015987 355.6240 4.4842 15.01602505236724 Sparrow 1 43881U 18111F 23117.28718983 .00007754 00000-0 59387-3 0 9994 2 43881 97.6521 23.7468 0011865 19.8117 340.3566 15.02081133236747 Lume 1 1 43908U 18111AJ 23117.17078762 .00031540 00000-0 70690-3 0 9996 2 43908 97.1469 1.2749 0014281 35.9110 324.3095 15.43258814241510 FO-99 1 43937U 19003F 23117.75525323 .00052598 00000-0 10085-2 0 9990 2 43937 97.0937 145.7569 0016365 103.4305 256.8771 15.47694015238233 AstroCast 0.2 1 44083U 19018F 23118.12080845 .00063694 00000-0 13566-2 0 9992 2 44083 97.2710 177.6537 0006219 106.1356 254.0577 15.44700216226676 AISTechSat 3 1 44103U 19018AB 23118.12376928 .00025670 00000-0 67501-3 0 9996 2 44103 97.2583 177.0094 0011012 101.5229 312.7695 15.38502369226804 AISat 1 1 44104U 19018AC 23117.25924816 .00021900 00000-0 45214-3 0 9994 2 44104 97.3720 207.7561 0043533 84.5792 276.0420 15.44821581227858 Prox-1 1 44339U 19036A 23117.82983758 .00007880 00000-0 16058-2 0 9991 2 44339 24.0023 4.5371 0009840 70.5593 289.5962 14.58807094204324 Move-IIb 1 44398U 19038N 23117.74488133 .00048226 00000-0 13754-2 0 9995 2 44398 97.6601 98.3527 0018501 109.6426 250.6815 15.35733105210919 SONATE 1 44400U 19038Q 23117.50169049 .00010477 00000-0 48313-3 0 9992 2 44400 97.6813 94.1560 0023006 125.2339 235.1053 15.20211191210532 BeeSat 9 1 44412U 19038AC 23117.87821936 .00027210 00000-0 10047-2 0 9990 2 44412 97.6731 96.9637 0018786 118.3641 241.9494 15.27558187210470 JAISAT-1 1 44419U 19038F 23117.90429696 .00027118 00000-0 99113-3 0 9997 2 44419 97.6726 98.0491 0018128 115.3505 244.9613 15.27907022210852 Taurus 1 1 44530U 19059C 23117.62826443 .00006920 00000-0 18091-2 0 9997 2 44530 98.5497 224.6791 0012042 240.3594 119.6397 14.49647259191319 Duchifat 3 1 44854U 19089C 23117.89485712 .00012228 00000-0 83749-3 0 9999 2 44854 36.9633 31.6799 0011268 270.8357 169.4445 15.05466831185255 OPS-SAT 1 44878U 19092F 23117.74750898 .00028599 00000-0 92508-3 0 9994 2 44878 97.4779 305.9330 0008234 315.4164 44.6414 15.31993112186069 TO-108 1 44881U 19093C 23117.87735508 .00001760 00000-0 22587-3 0 9995 2 44881 97.8617 197.1850 0013561 239.7126 120.2727 14.82418859181340 FloripaSat 1 1 44885U 19093G 23118.03525922 .00005977 00000-0 69883-3 0 9999 2 44885 97.8681 199.7667 0012583 241.0485 118.9407 14.85412538181504 RS-44 1 44909U 19096E 23117.24770593 .00000010 00000-0 41181-5 0 9993 2 44909 82.5264 21.7933 0216579 306.3016 51.8254 12.79720218155644 BY70-2 1 45857U 20042B 23117.89554662 .00027501 00000-0 29459-2 0 9992 2 45857 97.9260 197.6927 0010812 165.9106 194.2308 14.88587252152055 UPMSat 2 1 46276U 20061E 23117.49717396 .00008309 00000-0 36044-3 0 9994 2 46276 97.3494 186.1580 0002717 124.6359 235.5134 15.22591331146577 AmicalSat 1 46287U 20061R 23117.43461264 .00012025 00000-0 58038-3 0 9997 2 46287 97.4032 184.9359 0000872 224.9676 135.1487 15.18820100146002 SALSAT 1 46495U 20068K 23117.40943237 .00005533 00000-0 37038-3 0 9990 2 46495 97.7655 64.9060 0014120 295.5759 64.4008 15.07262008141429 CAPE 3 1 47309U 21002A 23117.52215210 .00036603 00000-0 96686-3 0 9996 2 47309 60.6776 254.9976 0023360 154.7630 205.4611 15.37958237126489 AO-109 1 47311U 21002C 23117.52756490 .00029598 00000-0 82385-3 0 9995 2 47311 60.6808 252.9299 0022671 148.7592 211.4854 15.36446717126499 MiTEE 1 1 47314U 21002F 23117.50587739 .00216467 00000-0 18444-2 0 9991 2 47314 60.6676 225.8039 0006067 119.3367 240.8348 15.68530621126971 ExoCube 2 1 47319U 21002L 23117.50302843 .00027299 00000-0 77764-3 0 9991 2 47319 60.6794 254.9750 0023157 151.7071 208.5285 15.35751486126420 UVSQ-SAT 1 47438U 21006AB 23117.13339398 .00013768 00000-0 58998-3 0 9995 2 47438 97.3887 175.0196 0008689 255.9930 104.0341 15.22847389124877 YUSAT 1 1 47439U 21006AC 23117.62865293 .00019261 00000-0 77484-3 0 9993 2 47439 97.3898 176.0857 0008324 250.4398 109.5941 15.24909445124981 SOMP 2b 1 47445U 21006AJ 23117.16393898 .00014266 00000-0 62339-3 0 9999 2 47445 97.3860 174.3780 0008459 262.1333 97.8943 15.22173770124850 IDEASSat 1 47458U 21006AX 23118.11344836 .00015326 00000-0 67864-3 0 9993 2 47458 97.3953 176.0689 0007920 256.2332 103.8023 15.21710713124983 CubeSX-Sirius-HSE 1 47951U 21022V 23117.95511850 .00013280 00000-0 76272-3 0 9992 2 47951 97.5016 16.1516 0019832 142.3303 279.1042 15.12472084115438 CubeSX-HSE 1 47952U 21022W 23117.79481215 .00013500 00000-0 77378-3 0 9999 2 47952 97.5018 16.0362 0020379 143.3563 259.8245 15.12533280115410 KSU-Cubesat 1 47954U 21022Y 23117.93173939 .00012859 00000-0 72264-3 0 9993 2 47954 97.5022 16.4816 0019756 141.9459 218.3172 15.13263221115178 GRBAlpha 1 47959U 21022AD 23118.13401929 .00014040 00000-0 80277-3 0 9991 2 47959 97.5019 16.4439 0019837 142.8684 4.9585 15.12619144114286 Orbicraft-Zorkiy 1 47960U 21022AE 23117.91114000 .00015050 00000-0 84629-3 0 9996 2 47960 97.5044 16.5839 0019486 142.5318 348.0759 15.13208574114953 STECCO 1 47962U 21022AG 23118.16993446 .00026012 00000-0 12634-2 0 9991 2 47962 97.5008 18.8130 0013788 126.7028 30.9408 15.18349199114441 DO-111 1 47963U 21022AH 23117.27796367 .00128515 00000-0 27126-2 0 9999 2 47963 97.5016 23.6597 0014117 113.8525 246.4204 15.44619364114696 MO-110 1 47964U 21022AJ 23117.29380622 .00018536 00000-0 88429-3 0 9990 2 47964 97.5026 18.4755 0017398 129.6019 230.6754 15.18993110114345 FEES 1 48082U 21022AL 23117.17232902 .00031115 00000-0 12828-2 0 9993 2 48082 97.5022 19.1695 0013699 123.1876 237.0677 15.23929756114081 TUBIN 1 48900U 21059X 23117.71644497 .00012752 00000-0 61877-3 0 9993 2 48900 97.5914 251.0512 0010525 98.7436 13.6733 15.18577251101517 IT-SPINS 1 49017U 21013G 23117.56983708 .00031404 00000-0 79877-3 0 9991 2 49017 51.5949 326.3462 0008354 147.1042 213.0463 15.39288584101904 LEDSAT 1 49069U 21073D 23117.94754455 .00010410 00000-0 58467-3 0 9997 2 49069 97.4845 189.6990 0023022 294.7393 65.1442 15.13280320 93307 CUTE 1 49263U 21088D 23117.13445948 .00009958 00000-0 65370-3 0 9990 2 49263 97.5470 183.8417 0019522 80.4182 279.9251 15.07683109 86595 TeikyoSat 4 1 49396U 21102B 23117.57175758 .00002698 00000-0 20998-3 0 9992 2 49396 97.5139 171.1173 0013969 259.8818 100.0832 15.02000529 80171 Z-Sat 1 49399U 21102E 23117.80991356 .00003512 00000-0 25407-3 0 9997 2 49399 97.4902 172.4528 0020494 238.0809 121.8424 15.04491714 80315 KOSEN 1 1 49402U 21102H 23117.14370849 .00004099 00000-0 28329-3 0 9994 2 49402 97.4827 172.2339 0019779 228.5895 131.3633 15.06123675 80270 HO-113 1 50466U 21131B 23117.96320816 .00000769 00000-0 26445-3 0 9994 2 50466 98.5516 199.6665 0003054 294.5460 65.5409 14.38851240 70137 Tevel-3 1 50988U 22002E 23117.96988911 .00027275 00000-0 11509-2 0 9992 2 50988 97.4380 185.3408 0009189 65.2217 12.6749 15.23221035 71115 Tevel-8 1 50989U 22002F 23117.72744983 .00028053 00000-0 11858-2 0 9998 2 50989 97.4375 185.1517 0009182 51.7780 46.4819 15.23153539 71078 Tevel-5 1 50998U 22002Q 23117.74654291 .00028957 00000-0 11946-2 0 9993 2 50998 97.4356 185.4431 0009679 53.6060 41.5567 15.23966014 71108 Tevel-6 1 50999U 22002R 23117.87968468 .00028564 00000-0 11783-2 0 9995 2 50999 97.4352 185.5727 0009568 56.1026 57.0544 15.23973240 71129 Tevel-1 1 51013U 22002AF 23117.78473737 .00027900 00000-0 11787-2 0 9990 2 51013 97.4371 185.1047 0008985 56.8640 40.6584 15.23176207 71085 Grizu-263a 1 51025U 22002AT 23117.20083476 .00065171 00000-0 17361-2 0 9993 2 51025 97.4515 188.7117 0006609 58.2405 301.9483 15.37925730 71204 NO-116 1 51031U 22002AZ 23117.13302209 .00031662 00000-0 11153-2 0 9991 2 51031 97.4483 186.8525 0009787 57.1166 303.1014 15.29193444 71090 IRIS-A 1 51044U 22002BN 23117.41321880 .00009757 00000-0 47662-3 0 9997 2 51044 97.4377 183.6730 0009432 64.4899 295.7309 15.18420629 70953 Tevel-7 1 51062U 22002CG 23117.72893897 .00027511 00000-0 11629-2 0 9994 2 51062 97.4383 185.1275 0008921 56.2348 41.9040 15.23161096 71074 Tevel-4 1 51063U 22002CH 23117.73304520 .00027944 00000-0 11824-2 0 9993 2 51063 97.4391 185.1188 0009003 54.9614 41.0327 15.23121971 71077 Tevel-2 1 51069U 22002CP 23117.97194772 .00027066 00000-0 11422-2 0 9990 2 51069 97.4371 185.3163 0009059 63.4690 15.5633 15.23220433 71110 DELFI-PQ 1 51074U 22002CU 23117.18662819 .00036515 00000-0 11768-2 0 9993 2 51074 97.4619 188.9512 0010617 84.0802 276.1649 15.32036166 71181 SO-115 1 51080U 22002DA 23117.42277150 .00023076 00000-0 88359-3 0 9996 2 51080 97.4638 188.1094 0012092 84.4806 275.7812 15.26486151 71142 SO-114 1 51081U 22002DB 23117.41568465 .00023878 00000-0 91033-3 0 9991 2 51081 97.4630 188.0691 0012195 83.8866 276.3761 15.26621527 71148 OreSat0 1 52017U 22026K 23117.81482100 .00019501 00000-0 82137-3 0 9995 2 52017 97.5115 120.1191 0020706 258.7992 101.0917 15.23195287 61871 Planetum 1 1 52738U 22057G 23117.31470589 .00014285 00000-0 68684-3 0 9997 2 52738 97.5315 233.3673 0008060 160.0332 200.1219 15.18887283 50936 Foresail-1 1 52766U 22057AL 23117.88171252 .00014531 00000-0 70592-3 0 9990 2 52766 97.5432 234.7968 0013260 143.0247 313.3832 15.18475909 51042 SNUGLITE 2 1 52899U 22065F 23117.47771398 .00001614 00000-0 35200-3 0 9993 2 52899 98.0616 263.7547 0008293 24.3974 335.7617 14.59169984 43465 CTIM 1 52950U 22074G 23117.49965992 .00057914 00000-0 14640-2 0 9996 2 52950 45.0017 281.7131 0014806 264.1694 95.7475 15.38932798 45780 IO-117 1 53106U 22080B 23115.60054139 -.00000003 00000-0 00000-0 0 9991 2 53106 70.1708 337.9996 0008248 197.2207 162.8174 6.42557241 18370 AstroBioCubeSat 1 53107U 22080C 22364.14200119 -.00000003 00000-0 00000-0 0 9997 2 53107 70.1674 18.5562 0013489 216.1674 143.8074 6.42110599 10793 SelfieSat 1 53951U 22057BC 23117.85746649 .00021304 00000-0 98344-3 0 9993 2 53951 97.5364 234.3982 0010165 154.4092 205.7647 15.20193982 51038 FO-118 1 54684U 22167C 23117.78757468 .00018139 00000-0 10307-2 0 9996 2 54684 97.5537 255.7773 0014556 147.0734 349.1053 15.12867167 21055 KILICSAT 1 56181U 23054D 23117.83443885 .00017151 00000-0 76435-3 0 9995 2 56181 97.4102 13.4834 0008671 200.1431 224.7345 15.21460051 2512 SSS-2B 1 56184U 23054G 23117.82181274 .00013558 00000-0 60331-3 0 9993 2 56184 97.4158 13.4824 0010301 202.0557 158.0237 15.21550183 2513 CIRBE 1 56188U 23054L 23117.55686188 .00014503 00000-0 64024-3 0 9995 2 56188 97.4110 13.2185 0009459 194.1646 165.9326 15.21813917 2473 INSPIRE-Sat 7 1 56211U 23054AK 23117.54568408 .00016215 00000-0 68507-3 0 9997 2 56211 97.4136 13.2383 0014987 182.1285 177.9891 15.23221831 2476 RoseyCubesat 1 1 56212U 23054AL 23117.54472834 .00017258 00000-0 72581-3 0 9990 2 56212 97.4142 13.2407 0015452 181.6665 178.4523 15.23356541 2470 ARKSAT 1 1 56311U 98067VC 23117.51287426 .00052912 00000-0 88339-3 0 9998 2 56311 51.6387 219.6499 0007814 276.1362 83.8737 15.51387629 480 AuroraSat 1 56312U 98067VD 23117.77057605 .00058446 00000-0 97373-3 0 9997 2 56312 51.6387 218.3711 0007725 276.6757 83.3353 15.51404826 554 Ex-Alta 2 1 56313U 98067VE 23117.51294775 .00052937 00000-0 88500-3 0 9992 2 56313 51.6386 219.6504 0007677 275.3132 84.6981 15.51350689 500 LightCube 1 56314U 98067VF 23117.77102843 .00064815 00000-0 10857-2 0 9992 2 56314 51.6384 218.3738 0007801 259.9887 100.0222 15.51207830 575 NEUDOSE 1 56315U 98067VG 23117.51338150 .00039789 00000-0 67433-3 0 9992 2 56315 51.6386 219.6532 0007961 258.5043 101.5053 15.51092594 487 YukonSat 1 56316U 98067VH 23117.51340836 .00048163 00000-0 81365-3 0 9993 2 56316 51.6387 219.6533 0007834 258.2973 101.7138 15.51097239 508 /EX